User: anonymous   Login
Location: Unspecified
(0.0000°N, 0.0000°E)
Time: 02:39:46
(UTC+02:00)
Language:

IUS-9 SRM-1 - Orbit

View from above orbital plane
View from above orbital plane
View from above satellite
View from above satellite

Ground track
Ground track

The orbit data is extracted from the following two-line orbital elements,

1 19884U 89021C   14294.54669405  .00017189  00000-0  20088-2 0  1403
2 19884 026.4801 030.3211 6055991 134.0905 346.4848 03.98376585294567
Epoch (UTC): 21 October 2014 13:07:14
Eccentricity: 0.6055991
inclination: 26.4801°
perigee height: 251 km
apogee height: 20610 km
right ascension of ascending node: 30.3211°
argument of perigee: 134.0905°
revolutions per day: 3.98376585
mean anomaly at epoch: 346.4848°
orbit number at epoch: 29456

The dashed part of the orbit path shows where the satellite is in the earth's shadow,  

DLR